This is the latest recevied weather packets stored in our database for station/object K1RTA. If no packets are shown the sender has not sent any weather packets the latest 10 day(s).
| Time | Temp. | Humidity | Pressure | Rain* | Wind** | Luminosity | Snow |
|---|---|---|---|---|---|---|---|
| 1787857742 | 28.89° C | 65% | 1018.9 hPa | 0 mm | - | - | - |
| 1787857442 | 28.89° C | 64% | 1018.9 hPa | 0 mm | - | - | - |
| 1787857143 | 28.89° C | 65% | 1018.7 hPa | 0 mm | - | - | - |
| 1787856843 | 28.89° C | 65% | 1018.7 hPa | 0 mm | - | - | - |
| 1787856542 | 28.89° C | 65% | 1018.8 hPa | 0 mm | - | - | - |
| 1787856243 | 28.89° C | 65% | 1018.8 hPa | 0 mm | - | - | - |
| 1787855943 | 28.89° C | 65% | 1018.8 hPa | 0 mm | - | - | - |
| 1787855643 | 28.89° C | 64% | 1018.8 hPa | 0 mm | - | - | - |
| 1787855343 | 28.89° C | 63% | 1018.9 hPa | 0 mm | - | - | - |
| 1787855043 | 29.44° C | 63% | 1018.9 hPa | 0 mm | - | - | - |
| 1787854742 | 29.44° C | 62% | 1018.9 hPa | 0 mm | - | - | - |
| 1787854442 | 29.44° C | 61% | 1018.9 hPa | 0 mm | - | - | - |
| 1787854142 | 30° C | 61% | 1018.9 hPa | 0 mm | - | - | - |
| 1787853842 | 29.44° C | 60% | 1019 hPa | 0 mm | - | - | - |
| 1787853542 | 29.44° C | 61% | 1019 hPa | 0 mm | - | - | - |
| 1787853241 | 30° C | 59% | 1019 hPa | 0 mm | - | - | - |
| 1787852943 | 29.44° C | 62% | 1019.1 hPa | 0 mm | - | - | - |
| 1787852643 | 29.44° C | 61% | 1019.1 hPa | 0 mm | - | - | - |
| 1787852343 | 28.89° C | 64% | 1019.2 hPa | 0 mm | - | - | - |
| 1787852043 | 28.33° C | 65% | 1019.2 hPa | 0 mm | - | - | - |
| 1787851743 | 28.33° C | 65% | 1019.1 hPa | 0 mm | - | - | - |
| 1787851442 | 28.33° C | 64% | 1019.2 hPa | 0 mm | - | - | - |
| 1787851142 | 28.33° C | 68% | 1019.2 hPa | 0 mm | - | - | - |
| 1787850842 | 28.33° C | 65% | 1019.2 hPa | 0 mm | - | - | - |
| 1787850542 | 28.33° C | 66% | 1019.3 hPa | 0 mm | - | - | - |
* Rain latest hour (hover to see other rain measurements)
** Current wind speed in m/s (hover to see current wind gust speed)